| time (UTC) | temp F | wind direction | speed knots | gust knots | rain 1hr in | rain 24hr in | rain mn in | humidity % | barometer mb |
| 20260503070330 | 53 | 304 | 1.7 | 7.0 | 0.00 | 0.02 | 0.00 | 75 | 1017.8 |
| 20260503070130 | 52 | 152 | 1.7 | 7.0 | 0.00 | 0.02 | 0.02 | 75 | 1017.9 |
| 20260503060330 | 55 | 271 | 1.7 | 8.7 | 0.00 | 0.02 | 0.02 | 67 | 1017.6 |
| 20260503060126 | 55 | 271 | 4.3 | 12.2 | 0.00 | 0.02 | 0.02 | 65 | 1017.6 |
| 20260503054829 | 55 | 298 | 7.0 | 12.2 | 0.00 | 0.02 | 0.02 | 65 | 1017.6 |
| 20260503054444 | 55 | 302 | 8.7 | 15.6 | 0.00 | 0.02 | 0.02 | 66 | 1017.6 |
| 20260503054422 | 55 | 333 | 7.8 | 15.6 | 0.00 | 0.02 | 0.02 | 66 | 1017.5 |
| 20260503053329 | 55 | 5 | 7.8 | 13.9 | 0.00 | 0.02 | 0.02 | 67 | 1017.5 |
| 20260503052822 | 55 | 347 | 8.7 | 14.8 | 0.00 | 0.02 | 0.02 | 68 | 1017.5 |
| 20260503052318 | 55 | 311 | 8.7 | 14.8 | 0.00 | 0.02 | 0.02 | 68 | 1017.6 |
| 20260503051808 | 55 | 342 | 8.7 | 16.5 | 0.00 | 0.02 | 0.02 | 68 | 1017.5 |
| 20260503051306 | 54 | 325 | 9.6 | 16.5 | 0.00 | 0.02 | 0.02 | 69 | 1017.6 |
| 20260503050915 | 54 | 5 | 8.7 | 13.9 | 0.00 | 0.02 | 0.02 | 70 | 1017.6 |
| 20260503050853 | 54 | 355 | 8.7 | 14.8 | 0.00 | 0.02 | 0.02 | 69 | 1017.5 |
| 20260503045802 | 55 | 324 | 9.6 | 15.6 | 0.00 | 0.02 | 0.02 | 69 | 1017.5 |
| 20260503045301 | 55 | 342 | 9.6 | 16.5 | 0.00 | 0.02 | 0.02 | 68 | 1017.2 |
| 20260503045055 | 55 | 322 | 10.4 | 16.5 | 0.01 | 0.02 | 0.02 | 68 | 1017.0 |
| 20260503044301 | 55 | 325 | 10.4 | 16.5 | 0.01 | 0.02 | 0.02 | 68 | 1017.0 |
| 20260503043801 | 55 | 317 | 8.7 | 13.9 | 0.01 | 0.02 | 0.02 | 66 | 1017.0 |
| 20260503043303 | 55 | 342 | 7.8 | 13.0 | 0.01 | 0.02 | 0.02 | 66 | 1017.0 |
| 20260503042802 | 55 | 5 | 8.7 | 13.9 | 0.01 | 0.02 | 0.02 | 65 | 1017.0 |
| 20260503042301 | 55 | 338 | 7.8 | 13.9 | 0.01 | 0.02 | 0.02 | 65 | 1017.1 |
| 20260503042052 | 55 | 350 | 7.0 | 12.2 | 0.01 | 0.02 | 0.02 | 67 | 1017.0 |
| 20260503041302 | 56 | 340 | 6.1 | 10.4 | 0.01 | 0.02 | 0.02 | 65 | 1017.0 |
| 20260503041059 | 55 | 325 | 6.1 | 10.4 | 0.01 | 0.02 | 0.02 | 66 | 1017.1 |
| 20260503040300 | 55 | 16 | 6.1 | 10.4 | 0.02 | 0.02 | 0.02 | 66 | 1017.0 |
| 20260503035802 | 55 | 322 | 6.1 | 10.4 | 0.02 | 0.02 | 0.02 | 67 | 1017.0 |
| 20260503035304 | 55 | 347 | 5.2 | 8.7 | 0.02 | 0.02 | 0.02 | 70 | 1016.9 |
| 20260503034801 | 55 | 321 | 5.2 | 8.7 | 0.01 | 0.01 | 0.01 | 69 | 1016.7 |
| 20260503034300 | 55 | 292 | 5.2 | 9.6 | 0.01 | 0.01 | 0.01 | 68 | 1016.8 |
| 20260503033801 | 55 | 317 | 4.3 | 9.6 | 0.01 | 0.01 | 0.01 | 68 | 1016.8 |
| 20260503033301 | 55 | 321 | 3.5 | 11.3 | 0.01 | 0.01 | 0.01 | 68 | 1016.8 |
| 20260503032802 | 55 | 260 | 3.5 | 11.3 | 0.01 | 0.01 | 0.01 | 68 | 1016.8 |
| 20260503032551 | 56 | 223 | 4.3 | 14.8 | 0.01 | 0.01 | 0.01 | 67 | 1016.6 |
| 20260503031801 | 55 | 246 | 6.1 | 14.8 | 0.01 | 0.01 | 0.01 | 69 | 1016.4 |
| 20260503031648 | 56 | 231 | 9.6 | 16.5 | 0.01 | 0.01 | 0.01 | 65 | 1016.3 |
| 20260503031339 | 55 | 309 | 7.8 | 16.5 | 0.01 | 0.01 | 0.01 | 68 | 1016.3 |
| 20260503030301 | 56 | 346 | 9.6 | 16.5 | 0.00 | 0.00 | 0.00 | 66 | 1016.6 |
| 20260503030059 | 56 | 297 | 7.8 | 16.5 | 0.00 | 0.00 | 0.00 | 65 | 1016.6 |
| 20260503025301 | 57 | 344 | 8.7 | 14.8 | 0.00 | 0.00 | 0.00 | 63 | 1016.4 |
| 20260503025048 | 58 | 335 | 9.6 | 16.5 | 0.00 | 0.00 | 0.00 | 60 | 1016.4 |
| 20260503024301 | 60 | 350 | 8.7 | 16.5 | 0.00 | 0.00 | 0.00 | 58 | 1016.6 |
| 20260503024048 | 61 | 328 | 7.0 | 13.0 | 0.00 | 0.00 | 0.00 | 47 | 1016.3 |
| 20260503023301 | 61 | 355 | 7.8 | 13.0 | 0.00 | 0.00 | 0.00 | 47 | 1016.1 |
| 20260503022803 | 61 | 5 | 8.7 | 15.6 | 0.00 | 0.00 | 0.00 | 46 | 1016.0 |
| 20260503022301 | 61 | 309 | 7.8 | 15.6 | 0.00 | 0.00 | 0.00 | 45 | 1015.7 |
| 20260503022053 | 61 | 306 | 7.0 | 11.3 | 0.00 | 0.00 | 0.00 | 47 | 1015.9 |
| 20260503021301 | 62 | 344 | 7.8 | 14.8 | 0.00 | 0.00 | 0.00 | 46 | 1015.7 |
| 20260503020801 | 62 | 329 | 7.8 | 14.8 | 0.00 | 0.00 | 0.00 | 46 | 1015.7 |
| 20260503020301 | 62 | 341 | 7.0 | 12.2 | 0.00 | 0.00 | 0.00 | 46 | 1015.6 |
| 20260503015801 | 63 | 305 | 7.0 | 11.3 | 0.00 | 0.00 | 0.00 | 43 | 1015.6 |
| 20260503015301 | 63 | 355 | 7.0 | 11.3 | 0.00 | 0.00 | 0.00 | 43 | 1015.5 |
| 20260503014801 | 63 | 332 | 7.8 | 11.3 | 0.00 | 0.00 | 0.00 | 45 | 1015.5 |
| 20260503014302 | 64 | 343 | 7.0 | 12.2 | 0.00 | 0.00 | 0.00 | 44 | 1015.5 |
| 20260503013801 | 64 | 347 | 6.1 | 12.2 | 0.00 | 0.00 | 0.00 | 40 | 1015.6 |
| 20260503013301 | 64 | 315 | 6.1 | 10.4 | 0.00 | 0.00 | 0.00 | 40 | 1015.6 |
| 20260503012801 | 64 | 333 | 7.0 | 11.3 | 0.00 | 0.00 | 0.00 | 40 | 1015.7 |
| 20260503012300 | 64 | 333 | 7.0 | 11.3 | 0.00 | 0.00 | 0.00 | 39 | 1015.6 |
| 20260503011801 | 64 | 305 | 7.0 | 13.0 | 0.00 | 0.00 | 0.00 | 39 | 1015.5 |
| 20260503011300 | 65 | 254 | 6.1 | 13.0 | 0.00 | 0.00 | 0.00 | 38 | 1015.6 |
| 20260503010801 | 65 | 327 | 3.5 | 12.2 | 0.00 | 0.00 | 0.00 | 39 | 1015.5 |
| 20260503010556 | 65 | 292 | 2.6 | 8.7 | 0.00 | 0.00 | 0.00 | 39 | 1015.5 |
| 20260503005757 | 65 | 246 | 2.6 | 6.1 | 0.00 | 0.00 | 0.00 | 37 | 1015.6 |
| 20260503005250 | 65 | 339 | 4.3 | 10.4 | 0.00 | 0.00 | 0.00 | 39 | 1015.5 |
| 20260503004749 | 65 | 86 | 7.0 | 12.2 | 0.00 | 0.00 | 0.00 | 40 | 1015.5 |
| 20260503004251 | 65 | 67 | 9.6 | 16.5 | 0.00 | 0.00 | 0.00 | 40 | 1015.5 |
| 20260503003752 | 66 | 62 | 11.3 | 17.4 | 0.00 | 0.00 | 0.00 | 40 | 1015.3 |
| 20260503003542 | 66 | 54 | 12.2 | 20.0 | 0.00 | 0.00 | 0.00 | 39 | 1015.2 |
| 20260503002751 | 66 | 45 | 13.0 | 20.0 | 0.00 | 0.00 | 0.00 | 40 | 1015.2 |
| 20260503002251 | 67 | 80 | 12.2 | 19.1 | 0.00 | 0.00 | 0.00 | 36 | 1015.2 |
| 20260503001749 | 69 | 74 | 10.4 | 18.2 | 0.00 | 0.00 | 0.00 | 35 | 1015.0 |
| 20260503001250 | 69 | 82 | 8.7 | 13.9 | 0.00 | 0.00 | 0.00 | 33 | 1015.0 |
| 20260503000750 | 69 | 111 | 7.8 | 11.3 | 0.00 | 0.00 | 0.00 | 32 | 1015.2 |
| 20260503000254 | 68 | 102 | 9.6 | 16.5 | 0.00 | 0.00 | 0.00 | 36 | 1015.2 |
| 20260502235751 | 68 | 60 | 13.0 | 20.9 | 0.00 | 0.00 | 0.00 | 36 | 1015.0 |
| 20260502235246 | 68 | 59 | 14.8 | 20.9 | 0.00 | 0.00 | 0.00 | 35 | 1014.8 |
| 20260502235043 | 68 | 83 | 14.8 | 20.0 | 0.00 | 0.00 | 0.00 | 33 | 1015.2 |
| 20260502234246 | 68 | 57 | 13.9 | 19.1 | 0.00 | 0.00 | 0.00 | 32 | 1015.2 |
| 20260502233747 | 70 | 83 | 12.2 | 16.5 | 0.00 | 0.00 | 0.00 | 31 | 1015.2 |
| 20260502233245 | 70 | 92 | 10.4 | 16.5 | 0.00 | 0.00 | 0.00 | 30 | 1015.2 |
| 20260502232746 | 70 | 88 | 7.8 | 13.0 | 0.00 | 0.00 | 0.00 | 29 | 1015.0 |
| 20260502232245 | 70 | 103 | 7.8 | 11.3 | 0.00 | 0.00 | 0.00 | 30 | 1015.0 |
| 20260502232114 | 71 | 102 | 8.7 | 11.3 | 0.00 | 0.00 | 0.00 | 29 | 1015.2 |
| 20260502231248 | 70 | 107 | 9.6 | 15.6 | 0.00 | 0.00 | 0.00 | 30 | 1015.0 |
| 20260502230747 | 70 | 95 | 11.3 | 16.5 | 0.00 | 0.00 | 0.00 | 30 | 1015.2 |
| 20260502230643 | 71 | 92 | 6.1 | 18.2 | 0.00 | 0.00 | 0.00 | 28 | 1015.2 |
| 20260502230324 | 70 | 104 | 9.6 | 18.2 | 0.00 | 0.00 | 0.00 | 29 | 1015.3 |
| 20260502225245 | 71 | 133 | 5.2 | 9.6 | 0.00 | 0.00 | 0.00 | 28 | 1015.3 |
| 20260502224746 | 72 | 130 | 5.2 | 9.6 | 0.00 | 0.00 | 0.00 | 28 | 1015.4 |
| 20260502224247 | 72 | 132 | 5.2 | 11.3 | 0.00 | 0.00 | 0.00 | 27 | 1015.4 |
| 20260502223842 | 72 | 118 | 4.3 | 9.6 | 0.00 | 0.00 | 0.00 | 28 | 1015.4 |
| 20260502223824 | 72 | 135 | 5.2 | 11.3 | 0.00 | 0.00 | 0.00 | 26 | 1015.4 |
| 20260502223042 | 72 | 182 | 6.1 | 10.4 | 0.00 | 0.00 | 0.00 | 26 | 1015.5 |
| 20260502222244 | 72 | 156 | 5.2 | 10.4 | 0.00 | 0.00 | 0.00 | 27 | 1015.6 |
| 20260502222054 | 72 | 171 | 6.1 | 9.6 | 0.00 | 0.00 | 0.00 | 28 | 1015.6 |
| 20260502221243 | 72 | 140 | 7.0 | 11.3 | 0.00 | 0.00 | 0.00 | 28 | 1015.7 |
| 20260502220743 | 73 | 113 | 5.2 | 11.3 | 0.00 | 0.00 | 0.00 | 27 | 1015.7 |
| 20260502220549 | 72 | 133 | 5.2 | 10.4 | 0.00 | 0.00 | 0.00 | 27 | 1015.9 |
| 20260502215740 | 72 | 185 | 5.2 | 10.4 | 0.00 | 0.00 | 0.00 | 26 | 1015.9 |
| 20260502215242 | 73 | 192 | 4.3 | 8.7 | 0.00 | 0.00 | 0.00 | 26 | 1015.9 |
| 20260502214737 | 72 | 229 | 5.2 | 9.6 | 0.00 | 0.00 | 0.00 | 26 | 1016.0 |
| 20260502214235 | 71 | 136 | 4.3 | 9.6 | 0.00 | 0.00 | 0.00 | 26 | 1016.1 |
| 20260502213736 | 72 | 229 | 3.5 | 7.0 | 0.00 | 0.00 | 0.00 | 29 | 1016.0 |
| 20260502213236 | 72 | 126 | 2.6 | 7.0 | 0.00 | 0.00 | 0.00 | 27 | 1016.1 |
| 20260502212733 | 72 | 204 | 1.7 | 6.1 | 0.00 | 0.00 | 0.00 | 28 | 1016.1 |
| 20260502212233 | 72 | 118 | 3.5 | 7.0 | 0.00 | 0.00 | 0.00 | 28 | 1016.2 |
| 20260502211731 | 72 | 181 | 2.6 | 7.0 | 0.00 | 0.00 | 0.00 | 28 | 1016.3 |
| 20260502211231 | 72 | 73 | 2.6 | 5.2 | 0.00 | 0.00 | 0.00 | 29 | 1016.3 |
| 20260502210731 | 73 | 115 | 3.5 | 8.7 | 0.00 | 0.00 | 0.00 | 31 | 1016.4 |
| 20260502210229 | 72 | 115 | 4.3 | 8.7 | 0.00 | 0.00 | 0.00 | 29 | 1016.6 |
| 20260502205730 | 71 | 136 | 4.3 | 9.6 | 0.00 | 0.00 | 0.00 | 29 | 1016.8 |
| 20260502205229 | 71 | 150 | 3.5 | 9.6 | 0.00 | 0.00 | 0.00 | 31 | 1016.8 |
| 20260502204724 | 70 | 238 | 2.6 | 5.2 | 0.00 | 0.00 | 0.00 | 29 | 1016.9 |
| 20260502204217 | 71 | 207 | 4.3 | 7.8 | 0.00 | 0.00 | 0.00 | 29 | 1017.0 |
| 20260502203710 | 72 | 158 | 4.3 | 10.4 | 0.00 | 0.00 | 0.00 | 27 | 1017.0 |
| 20260502203209 | 72 | 79 | 3.5 | 10.4 | 0.00 | 0.00 | 0.00 | 31 | 1016.9 |
| 20260502202709 | 72 | 137 | 2.6 | 7.0 | 0.00 | 0.00 | 0.00 | 28 | 1017.0 |
| 20260502202208 | 73 | 250 | 2.6 | 7.0 | 0.00 | 0.00 | 0.00 | 25 | 1017.1 |
| 20260502202014 | 72 | 107 | 1.7 | 6.1 | 0.00 | 0.00 | 0.00 | 31 | 1017.1 |
| 20260502201206 | 72 | 355 | 1.7 | 5.2 | 0.00 | 0.00 | 0.00 | 30 | 1017.1 |
| 20260502200706 | 71 | 265 | 1.7 | 5.2 | 0.00 | 0.00 | 0.00 | 28 | 1017.2 |
| 20260502200205 | 72 | 170 | 1.7 | 4.3 | 0.00 | 0.00 | 0.00 | 30 | 1017.2 |
| 20260502195704 | 73 | 143 | 2.6 | 7.0 | 0.00 | 0.00 | 0.00 | 33 | 1017.2 |
| 20260502195205 | 72 | 80 | 3.5 | 7.0 | 0.00 | 0.00 | 0.00 | 34 | 1017.4 |
| 20260502194704 | 69 | 127 | 2.6 | 6.1 | 0.00 | 0.00 | 0.00 | 32 | 1017.5 |
| 20260502194204 | 69 | 174 | 2.6 | 7.0 | 0.00 | 0.00 | 0.00 | 32 | 1017.5 |
| 20260502193703 | 69 | 240 | 3.5 | 7.0 | 0.00 | 0.00 | 0.00 | 31 | 1017.5 |
| 20260502193202 | 70 | 193 | 4.3 | 9.6 | 0.00 | 0.00 | 0.00 | 30 | 1017.6 |
| 20260502192701 | 70 | 220 | 4.3 | 9.6 | 0.00 | 0.00 | 0.00 | 30 | 1017.6 |
| 20260502192458 | 71 | 134 | 3.5 | 9.6 | 0.00 | 0.00 | 0.00 | 32 | 1017.6 |
| 20260502191702 | 70 | 87 | 3.5 | 7.8 | 0.00 | 0.00 | 0.00 | 30 | 1017.6 |
| 20260502191202 | 70 | 131 | 3.5 | 7.0 | 0.00 | 0.00 | 0.00 | 30 | 1017.6 |
| 20260502190702 | 70 | 125 | 2.6 | 7.0 | 0.00 | 0.00 | 0.00 | 33 | 1017.6 |
| 20260502190455 | 70 | 98 | 2.6 | 7.0 | 0.00 | 0.00 | 0.00 | 33 | 1017.6 |
| 20260502185653 | 69 | 166 | 2.6 | 7.0 | 0.00 | 0.00 | 0.00 | 31 | 1017.6 |
| 20260502185146 | 72 | 155 | 3.5 | 6.1 | 0.00 | 0.00 | 0.00 | 31 | 1017.7 |
| 20260502184640 | 71 | 137 | 3.5 | 9.6 | 0.00 | 0.00 | 0.00 | 37 | 1017.7 |
| 20260502184133 | 69 | 165 | 2.6 | 9.6 | 0.00 | 0.00 | 0.00 | 32 | 1017.8 |
| 20260502183635 | 69 | 117 | 2.6 | 7.0 | 0.00 | 0.00 | 0.00 | 35 | 1017.8 |
| 20260502183135 | 67 | 179 | 3.5 | 8.7 | 0.00 | 0.00 | 0.00 | 34 | 1017.9 |
| 20260502182634 | 67 | 111 | 4.3 | 9.6 | 0.00 | 0.00 | 0.00 | 34 | 1017.9 |
| 20260502182432 | 67 | 140 | 4.3 | 9.6 | 0.00 | 0.00 | 0.00 | 34 | 1018.1 |
| 20260502181635 | 68 | 132 | 4.3 | 8.7 | 0.00 | 0.00 | 0.00 | 36 | 1018.1 |
| 20260502181135 | 69 | 153 | 4.3 | 8.7 | 0.00 | 0.00 | 0.00 | 32 | 1018.1 |
| 20260502180632 | 69 | 92 | 3.5 | 7.8 | 0.00 | 0.00 | 0.00 | 38 | 1018.2 |
| 20260502180137 | 68 | 132 | 3.5 | 8.7 | 0.00 | 0.00 | 0.00 | 33 | 1018.2 |
| 20260502170424 | 66 | 150 | 3.5 | 7.0 | 0.00 | 0.00 | 0.00 | 38 | 1018.3 |
| 20260502164123 | 66 | 117 | 3.5 | 6.1 | 0.00 | 0.00 | 0.00 | 41 | 1018.3 |
| 20260502163622 | 65 | 123 | 3.5 | 7.0 | 0.00 | 0.00 | 0.00 | 40 | 1018.4 |
| 20260502163213 | 64 | 140 | 3.5 | 6.1 | 0.00 | 0.00 | 0.00 | 44 | 1018.3 |
| 20260502163158 | 64 | 132 | 3.5 | 7.0 | 0.00 | 0.00 | 0.00 | 42 | 1018.3 |
| 20260502162417 | 62 | 78 | 1.7 | 5.2 | 0.00 | 0.00 | 0.00 | 43 | 1018.4 |
| 20260502161622 | 62 | 109 | 1.7 | 5.2 | 0.00 | 0.00 | 0.00 | 46 | 1018.4 |
| 20260502161122 | 60 | 114 | 1.7 | 3.5 | 0.00 | 0.00 | 0.00 | 43 | 1018.4 |
| 20260502160622 | 59 | 122 | 1.7 | 3.5 | 0.00 | 0.00 | 0.00 | 45 | 1018.4 |
| 20260502160121 | 60 | 96 | 1.7 | 3.5 | 0.00 | 0.00 | 0.00 | 49 | 1018.5 |
| 20260502152107 | 54 | 63 | 0.9 | 3.5 | 0.00 | 0.00 | 0.00 | 57 | 1018.3 |
| 20260502151605 | 53 | 63 | 0.0 | 1.7 | 0.00 | 0.00 | 0.00 | 57 | 1018.4 |
| 20260502151203 | 52 | 63 | 0.0 | 1.7 | 0.00 | 0.00 | 0.00 | 63 | 1018.3 |
| 20260502151142 | 51 | 63 | 0.0 | 1.7 | 0.00 | 0.00 | 0.00 | 56 | 1018.4 |
| 20260502130600 | 47 | 55 | 1.7 | 2.6 | 0.00 | 0.00 | 0.00 | 59 | 1017.6 |
| 20260502123541 | 47 | 334 | 0.9 | 2.6 | 0.00 | 0.00 | 0.00 | 60 | 1017.6 |
| 20260502123040 | 48 | 234 | 1.7 | 3.5 | 0.00 | 0.00 | 0.00 | 58 | 1017.5 |
| 20260502122540 | 49 | 65 | 2.6 | 4.3 | 0.00 | 0.00 | 0.00 | 55 | 1017.6 |
| 20260502122038 | 49 | 240 | 3.5 | 4.3 | 0.00 | 0.00 | 0.00 | 55 | 1017.5 |
| 20260502121538 | 49 | 242 | 3.5 | 6.1 | 0.00 | 0.00 | 0.00 | 54 | 1017.6 |
| 20260502121038 | 49 | 242 | 4.3 | 6.1 | 0.00 | 0.00 | 0.00 | 55 | 1017.6 |
| 20260502120536 | 49 | 242 | 3.5 | 6.1 | 0.00 | 0.00 | 0.00 | 55 | 1017.6 |
| 20260502120145 | 49 | 224 | 2.6 | 4.3 | 0.00 | 0.00 | 0.00 | 56 | 1017.6 |
| 20260502120122 | 49 | 232 | 3.5 | 4.3 | 0.00 | 0.00 | 0.00 | 55 | 1017.6 |
| 20260502115034 | 48 | 201 | 0.9 | 3.5 | 0.00 | 0.00 | 0.00 | 56 | 1017.6 |
| 20260502114826 | 49 | 209 | 1.7 | 3.5 | 0.00 | 0.00 | 0.00 | 57 | 1017.6 |
| 20260502114029 | 50 | 183 | 2.6 | 3.5 | 0.00 | 0.00 | 0.00 | 53 | 1017.6 |
| 20260502113823 | 50 | 240 | 3.5 | 4.3 | 0.00 | 0.00 | 0.00 | 53 | 1017.6 |
| 20260502113029 | 50 | 246 | 3.5 | 5.2 | 0.00 | 0.00 | 0.00 | 53 | 1017.7 |
| 20260502112531 | 49 | 244 | 2.6 | 5.2 | 0.00 | 0.00 | 0.00 | 52 | 1017.8 |
| 20260502112030 | 49 | 241 | 2.6 | 5.2 | 0.00 | 0.00 | 0.00 | 52 | 1017.8 |
| 20260502111610 | 50 | 206 | 3.5 | 5.2 | 0.00 | 0.00 | 0.00 | 52 | 1017.8 |
| 20260502111556 | 50 | 254 | 3.5 | 5.2 | 0.00 | 0.00 | 0.00 | 51 | 1017.7 |
| 20260502110517 | 50 | 242 | 3.5 | 5.2 | 0.00 | 0.00 | 0.00 | 52 | 1017.8 |
| 20260502110013 | 51 | 245 | 2.6 | 4.3 | 0.00 | 0.00 | 0.00 | 50 | 1017.7 |
| 20260502105514 | 51 | 219 | 1.7 | 3.5 | 0.00 | 0.00 | 0.00 | 51 | 1017.7 |
| 20260502105013 | 51 | 220 | 2.6 | 3.5 | 0.00 | 0.00 | 0.00 | 50 | 1017.7 |
| 20260502104513 | 51 | 232 | 1.7 | 3.5 | 0.00 | 0.00 | 0.00 | 49 | 1017.7 |
| 20260502104012 | 51 | 204 | 1.7 | 3.5 | 0.00 | 0.00 | 0.00 | 49 | 1017.7 |
| 20260502103511 | 50 | 202 | 0.9 | 3.5 | 0.00 | 0.00 | 0.00 | 51 | 1017.7 |
| 20260502103013 | 50 | 234 | 0.9 | 3.5 | 0.00 | 0.00 | 0.00 | 49 | 1017.7 |
| 20260502102513 | 51 | 234 | 2.6 | 4.3 | 0.00 | 0.00 | 0.00 | 49 | 1017.7 |
| 20260502102257 | 51 | 236 | 3.5 | 5.2 | 0.00 | 0.00 | 0.00 | 48 | 1017.8 |
| 20260502101510 | 51 | 232 | 3.5 | 5.2 | 0.00 | 0.00 | 0.00 | 48 | 1017.8 |
| 20260502101009 | 52 | 247 | 3.5 | 4.3 | 0.00 | 0.00 | 0.00 | 46 | 1017.7 |
| 20260502100510 | 52 | 222 | 2.6 | 4.3 | 0.00 | 0.00 | 0.00 | 44 | 1017.7 |
| 20260502091009 | 53 | 248 | 2.6 | 4.3 | 0.00 | 0.00 | 0.00 | 37 | 1018.1 |
| 20260502090510 | 53 | 206 | 2.6 | 4.3 | 0.00 | 0.00 | 0.00 | 37 | 1018.1 |
| 20260502071501 | 56 | 268 | 3.5 | 5.2 | 0.00 | 0.00 | 0.00 | 29 | 1018.6 |
| 20260502071001 | 56 | 265 | 1.7 | 5.2 | 0.00 | 0.00 | 0.00 | 28 | 1018.7 |
| 20260502070501 | 56 | 257 | 0.9 | 2.6 | 0.00 | 0.00 | 0.00 | 28 | 1018.7 |